Location: Griffin Ranch
(33.6186°N, 110.6622°W)
Time: 19:18:23
(UTC-07:00)

Cosmos 1812 - Visible Passes

Search period start: 02 September 2014 00:00
Search period end: 12 September 2014 00:00
Orbit: 534 x 541 km, 82.5° (Epoch: 01 September)

Date Brightness Start Highest point End Pass type
(mag) Time Alt. Az. Time Alt. Az. Time Alt. Az.
09 Sep 2.8 05:30:05 10° SSW 05:33:55 56° W 05:37:48 10° N visible
10 Sep 2.8 05:21:53 10° SSW 05:25:43 57° W 05:29:36 10° N visible
11 Sep 2.8 05:13:40 10° SSW 05:17:31 58° W 05:21:24 10° N visible
